Location: Ferintosh
(52.7647°N, 112.9692°W)
Time: 15:30:57
(UTC+00:00)

Transit 2A Rocket - Pass Details

Date: 28 May 2024
Orbit: 583 x 910 km, 66.7° (Epoch: 22 June)

Event Time Altitude Azimuth Distance (km) Brightness Sun altitude
Rises 10:49:38 0° 225° (SW) 3,037 - -3.9°
Exits shadow 10:50:43 - 226° (SW) 2,611 7.0 -3.8°
Reaches altitude 10° 10:51:51 10° 227° (SW) 2,172 6.7 -3.7°
Maximum altitude 10:56:49 74° 312° (NW) 792 5.1 -3.1°
Drops below altitude 10° 11:02:21 10° 38° (NE) 2,407 9.5 -2.5°
Sets 11:04:55 0° 41° (NE) 3,391 10.9 -2.2°
